• In Sweden
  • List of Countries
  • For 7 days
  • Water Temperature
  • Satellite Maps
  • Weather Map
  • Weather Widgets
  • user-avatar
    Login

    Hourly Weather Albena

    Today, 24 September, Sunday

    Time Temperature Precipitation Wind Pressure Humidity
    00:00 +14°C° 0 mm 4 mps 749 mmHg 54%
    01:00 +14°C° 0 mm 4 mps 749 mmHg 56%
    02:00 +13°C° 0 mm 4 mps 749 mmHg 57%
    03:00 +13°C° 0 mm 4 mps 749 mmHg 59%
    04:00 +12°C° 0 mm 4 mps 748 mmHg 61%
    05:00 +12°C° 0 mm 4 mps 748 mmHg 63%
    06:00 +13°C° 0 mm 4 mps 749 mmHg 58%
    07:00 +15°C° 0 mm 4 mps 749 mmHg 54%
    08:00 +16°C° 0 mm 5 mps 749 mmHg 46%
    09:00 +19°C° 0 mm 5 mps 749 mmHg 42%
    10:00 +21°C° 0 mm 5 mps 749 mmHg 38%
    11:00 +22°C° 0 mm 4 mps 749 mmHg 34%
    12:00 +23°C° 0 mm 4 mps 749 mmHg 33%
    13:00 +25°C° 0 mm 4 mps 749 mmHg 32%
    14:00 +26°C° 0 mm 3 mps 749 mmHg 31%
    15:00 +25°C° 0 mm 4 mps 749 mmHg 33%
    16:00 +25°C° 0 mm 4 mps 749 mmHg 34%
    17:00 +23°C° 0 mm 4 mps 749 mmHg 36%
    18:00 +21°C° 0 mm 3 mps 749 mmHg 43%
    19:00 +20°C° 0 mm 3 mps 749 mmHg 49%
    20:00 +18°C° 0 mm 3 mps 749 mmHg 56%
    21:00 +17°C° 0 mm 2 mps 750 mmHg 59%
    22:00 +17°C° 0 mm 2 mps 750 mmHg 62%
    23:00 +16°C° 0 mm 2 mps 750 mmHg 65%

    Tomorrow, 25 September, Monday

    Time Temperature Precipitation Wind Pressure Humidity
    00:00 +16°C° 0 mm 1 mps 750 mmHg 68%
    01:00 +16°C° 0 mm 1 mps 750 mmHg 70%
    02:00 +15°C° 0 mm 1 mps 750 mmHg 72%
    03:00 +15°C° 0 mm 1 mps 750 mmHg 72%
    04:00 +15°C° 0 mm 1 mps 749 mmHg 73%
    05:00 +15°C° 0 mm 1 mps 749 mmHg 73%
    06:00 +16°C° 0 mm 2 mps 749 mmHg 69%
    07:00 +17°C° 0 mm 3 mps 750 mmHg 64%
    08:00 +19°C° 0 mm 3 mps 750 mmHg 59%
    09:00 +20°C° 0 mm 4 mps 750 mmHg 55%
    10:00 +21°C° 0 mm 4 mps 750 mmHg 50%
    11:00 +23°C° 0 mm 5 mps 750 mmHg 45%
    12:00 +23°C° 0 mm 5 mps 750 mmHg 45%
    13:00 +23°C° 0 mm 6 mps 750 mmHg 44%
    14:00 +24°C° 0 mm 6 mps 749 mmHg 44%
    15:00 +23°C° 0 mm 6 mps 749 mmHg 48%
    16:00 +22°C° 0 mm 6 mps 749 mmHg 52%
    17:00 +22°C° 0 mm 6 mps 749 mmHg 55%
    18:00 +20°C° 0 mm 6 mps 749 mmHg 63%
    19:00 +19°C° 0 mm 5 mps 749 mmHg 71%
    20:00 +17°C° 0 mm 5 mps 749 mmHg 78%
    21:00 +16°C° 0 mm 5 mps 749 mmHg 82%
    22:00 +16°C° 0 mm 5 mps 749 mmHg 86%
    23:00 +15°C° 0 mm 5 mps 749 mmHg 89%

    Day after tomorrow, 26 September, Tuesday

    Time Temperature Precipitation Wind Pressure Humidity
    00:00 +15°C° 0 mm 4 mps 749 mmHg 90%
    01:00 +15°C° 0 mm 4 mps 748 mmHg 90%
    02:00 +14°C° 0 mm 4 mps 748 mmHg 90%
    03:00 +14°C° 0 mm 4 mps 748 mmHg 90%
    04:00 +14°C° 0 mm 5 mps 748 mmHg 90%
    05:00 +14°C° 0 mm 5 mps 748 mmHg 91%
    06:00 +15°C° 0 mm 5 mps 748 mmHg 85%
    07:00 +16°C° 0 mm 5 mps 748 mmHg 79%
    08:00 +19°C° 0 mm 6 mps 748 mmHg 73%
    09:00 +21°C° 0.2 mm 6 mps 748 mmHg 67%
    10:00 +22°C° 0.2 mm 6 mps 748 mmHg 61%
    11:00 +24°C° 0.2 mm 7 mps 749 mmHg 54%
    12:00 +24°C° 0.7 mm 7 mps 749 mmHg 57%
    13:00 +23°C° 0.7 mm 7 mps 749 mmHg 60%
    14:00 +22°C° 0.7 mm 8 mps 749 mmHg 63%
    15:00 +22°C° 0.1 mm 8 mps 749 mmHg 63%
    16:00 +21°C° 0.1 mm 8 mps 749 mmHg 64%
    17:00 +20°C° 0.1 mm 8 mps 749 mmHg 64%
    18:00 +18°C° 0.1 mm 8 mps 749 mmHg 67%
    19:00 +18°C° 0.1 mm 7 mps 750 mmHg 69%
    20:00 +17°C° 0.1 mm 7 mps 750 mmHg 72%
    21:00 +16°C° 0 mm 7 mps 750 mmHg 71%
    22:00 +16°C° 0 mm 7 mps 750 mmHg 71%
    23:00 +16°C° 0 mm 6 mps 750 mmHg 71%

    27 September, Wednesday

    Time Temperature Precipitation Wind Pressure Humidity
    00:00 +15°C° 0 mm 6 mps 750 mmHg 71%
    01:00 +15°C° 0 mm 6 mps 750 mmHg 71%
    02:00 +15°C° 0 mm 6 mps 750 mmHg 71%
    03:00 +14°C° 0 mm 6 mps 751 mmHg 71%
    04:00 +14°C° 0 mm 6 mps 751 mmHg 71%
    05:00 +14°C° 0 mm 6 mps 751 mmHg 70%
    06:00 +15°C° 0 mm 7 mps 751 mmHg 67%
    07:00 +16°C° 0 mm 7 mps 752 mmHg 65%
    08:00 +17°C° 0 mm 8 mps 752 mmHg 62%
    09:00 +17°C° 0 mm 8 mps 752 mmHg 60%
    10:00 +18°C° 0 mm 8 mps 753 mmHg 59%
    11:00 +19°C° 0 mm 9 mps 753 mmHg 57%
    12:00 +19°C° 0 mm 9 mps 753 mmHg 57%
    13:00 +18°C° 0 mm 9 mps 753 mmHg 57%
    14:00 +18°C° 0 mm 9 mps 753 mmHg 57%
    15:00 +18°C° 0 mm 8 mps 753 mmHg 58%
    16:00 +17°C° 0 mm 8 mps 753 mmHg 58%
    17:00 +17°C° 0 mm 8 mps 753 mmHg 59%
    18:00 +16°C° 0 mm 7 mps 754 mmHg 63%
    19:00 +15°C° 0 mm 7 mps 754 mmHg 67%
    20:00 +14°C° 0 mm 6 mps 754 mmHg 71%
    21:00 +13°C° 0 mm 6 mps 754 mmHg 72%
    22:00 +13°C° 0 mm 6 mps 754 mmHg 73%
    23:00 +13°C° 0 mm 6 mps 754 mmHg 74%

    28 September, Thursday

    Time Temperature Precipitation Wind Pressure Humidity
    00:00 +11°C° 0 mm 6 mps 754 mmHg 74%
    01:00 +11°C° 0 mm 6 mps 754 mmHg 74%
    02:00 +11°C° 0 mm 6 mps 754 mmHg 73%
    03:00 +11°C° 0 mm 6 mps 754 mmHg 73%
    04:00 +11°C° 0 mm 6 mps 754 mmHg 72%
    05:00 +10°C° 0 mm 6 mps 754 mmHg 72%
    06:00 +11°C° 0.1 mm 7 mps 754 mmHg 70%
    07:00 +12°C° 0.1 mm 7 mps 754 mmHg 68%
    08:00 +12°C° 0.1 mm 8 mps 754 mmHg 66%
    09:00 +13°C° 0.2 mm 8 mps 754 mmHg 64%
    10:00 +15°C° 0.2 mm 8 mps 754 mmHg 62%
    11:00 +15°C° 0.2 mm 8 mps 755 mmHg 60%
    12:00 +15°C° 0.1 mm 8 mps 754 mmHg 61%
    13:00 +15°C° 0.1 mm 8 mps 754 mmHg 63%
    14:00 +15°C° 0.1 mm 8 mps 754 mmHg 64%
    15:00 +15°C° 0.1 mm 8 mps 754 mmHg 62%
    16:00 +15°C° 0.1 mm 8 mps 754 mmHg 60%
    17:00 +15°C° 0.1 mm 8 mps 754 mmHg 59%
    18:00 +13°C° 0.1 mm 8 mps 754 mmHg 62%
    19:00 +12°C° 0.1 mm 7 mps 754 mmHg 66%
    20:00 +10°C° 0.1 mm 7 mps 754 mmHg 69%
    21:00 +10°C° 0.1 mm 7 mps 754 mmHg 69%
    22:00 +10°C° 0.1 mm 7 mps 754 mmHg 69%
    23:00 +9°C° 0.1 mm 7 mps 754 mmHg 68%

    29 September, Friday

    Time Temperature Precipitation Wind Pressure Humidity
    00:00 +9°C° 0 mm 7 mps 754 mmHg 67%
    01:00 +9°C° 0 mm 7 mps 753 mmHg 65%
    02:00 +9°C° 0 mm 7 mps 753 mmHg 63%
    03:00 +9°C° 0.1 mm 7 mps 753 mmHg 63%
    04:00 +9°C° 0.1 mm 7 mps 753 mmHg 63%
    05:00 +10°C° 0.1 mm 7 mps 753 mmHg 62%
    06:00 +10°C° 0.1 mm 8 mps 753 mmHg 61%
    07:00 +11°C° 0.1 mm 8 mps 753 mmHg 61%
    08:00 +11°C° 0.1 mm 9 mps 753 mmHg 60%
    09:00 +12°C° 0.2 mm 9 mps 753 mmHg 60%
    10:00 +12°C° 0.2 mm 9 mps 753 mmHg 60%
    11:00 +13°C° 0.2 mm 9 mps 753 mmHg 60%
    12:00 +15°C° 0.2 mm 9 mps 752 mmHg 56%
    13:00 +15°C° 0.2 mm 9 mps 752 mmHg 52%
    14:00 +16°C° 0.2 mm 9 mps 752 mmHg 48%
    15:00 +16°C° 0 mm 9 mps 752 mmHg 47%
    16:00 +15°C° 0 mm 9 mps 752 mmHg 47%
    17:00 +15°C° 0 mm 9 mps 752 mmHg 46%
    18:00 +13°C° 0 mm 8 mps 752 mmHg 51%
    19:00 +11°C° 0 mm 7 mps 752 mmHg 56%
    20:00 +10°C° 0 mm 7 mps 752 mmHg 60%
    21:00 +10°C° 0 mm 7 mps 751 mmHg 60%
    22:00 +9°C° 0 mm 7 mps 751 mmHg 60%
    23:00 +9°C° 0 mm 7 mps 751 mmHg 59%
    Show more